Location: Prairie View Elementary School
(39.8322°N, 99.5698°W)
Time: 01:36:37
(UTC+00:00)

CZ-4C R/B - Pass Details

Date: 08 December 2019
Orbit: 646 x 1356 km, 63.4° (Epoch: 22 January)

Event Time Altitude Azimuth Distance (km) Brightness Sun altitude
Exits shadow 11:27:52 34° 332° (NNW) 1,862 3.6 -25.9°
Maximum altitude 11:31:37 82° 56° (ENE) 1,272 3.0 -25.2°
Drops below altitude 10° 11:39:59 10° 145° (SE) 3,376 5.9 -23.6°
Sets 11:42:56 0° 146° (SE) 4,366 6.6 -23.1°
